| time (UTC) | temp F | wind direction | speed MPH | gust MPH | rain 1hr in | rain 24hr in | rain mn in | humidity % | barometer mb |
| 20260505012518 | 68 | 157 | 2.0 | 10.0 | 0.00 | 0.00 | 0.00 | 73 | 1030.1 |
| 20260505005019 | 69 | 149 | 2.0 | 8.0 | 0.00 | 0.00 | 0.00 | 75 | 1030.5 |
| 20260505004519 | 68 | 97 | 2.0 | 8.0 | 0.00 | 0.00 | 0.00 | 75 | 1030.5 |
| 20260505004020 | 67 | 81 | 1.0 | 5.0 | 0.00 | 0.00 | 0.00 | 77 | 1030.8 |
| 20260505003600 | 66 | 75 | 2.0 | 10.0 | 0.00 | 0.00 | 0.00 | 77 | 1030.9 |
| 20260505003028 | 66 | 91 | 4.0 | 10.0 | 0.00 | 0.00 | 0.00 | 76 | 1030.9 |
| 20260505002529 | 66 | 147 | 1.0 | 9.0 | 0.00 | 0.00 | 0.00 | 76 | 1031.0 |
| 20260505002028 | 66 | 177 | 3.0 | 10.0 | 0.00 | 0.00 | 0.00 | 76 | 1031.1 |
| 20260505001519 | 66 | 93 | 4.0 | 10.0 | 0.00 | 0.00 | 0.00 | 76 | 1031.1 |
| 20260505001019 | 66 | 97 | 4.0 | 10.0 | 0.00 | 0.00 | 0.00 | 76 | 1031.1 |
| 20260505000530 | 66 | 37 | 3.0 | 11.0 | 0.00 | 0.00 | 0.00 | 77 | 1031.2 |
| 20260505000021 | 66 | 132 | 4.0 | 11.0 | 0.00 | 0.00 | 0.00 | 77 | 1031.3 |
| 20260504235522 | 66 | 81 | 5.0 | 11.0 | 0.00 | 0.00 | 0.00 | 77 | 1031.3 |
| 20260504235018 | 66 | 78 | 8.0 | 11.0 | 0.00 | 0.00 | 0.00 | 77 | 1031.4 |
| 20260504234520 | 66 | 66 | 5.0 | 8.0 | 0.00 | 0.00 | 0.00 | 76 | 1031.4 |
| 20260504230519 | 65 | 82 | 6.0 | 11.0 | 0.00 | 0.00 | 0.00 | 77 | 1031.9 |
| 20260504230032 | 65 | 62 | 5.0 | 10.0 | 0.00 | 0.00 | 0.00 | 77 | 1031.9 |
| 20260504225521 | 66 | 130 | 4.0 | 9.0 | 0.00 | 0.00 | 0.00 | 77 | 1032.0 |
| 20260504225021 | 66 | 91 | 1.0 | 6.0 | 0.00 | 0.00 | 0.00 | 79 | 1032.1 |
| 20260504224522 | 65 | 161 | 2.0 | 9.0 | 0.00 | 0.00 | 0.00 | 79 | 1032.2 |
| 20260504224021 | 64 | 144 | 3.0 | 11.0 | 0.00 | 0.00 | 0.00 | 80 | 1032.2 |
| 20260504223522 | 64 | 91 | 5.0 | 11.0 | 0.00 | 0.00 | 0.00 | 80 | 1032.3 |
| 20260504223021 | 65 | 112 | 4.0 | 8.0 | 0.00 | 0.00 | 0.00 | 79 | 1032.3 |
| 20260504222519 | 64 | 182 | 3.0 | 9.0 | 0.00 | 0.00 | 0.00 | 79 | 1032.4 |
| 20260504222019 | 64 | 79 | 3.0 | 7.0 | 0.00 | 0.00 | 0.00 | 78 | 1032.3 |
| 20260504221521 | 64 | 152 | 2.0 | 6.0 | 0.00 | 0.00 | 0.00 | 77 | 1032.3 |
| 20260504221019 | 65 | 187 | 3.0 | 6.0 | 0.00 | 0.00 | 0.00 | 77 | 1032.3 |
| 20260504220521 | 65 | 170 | 0.0 | 4.0 | 0.00 | 0.00 | 0.00 | 77 | 1032.3 |
| 20260504220021 | 64 | 143 | 0.0 | 0.0 | 0.00 | 0.00 | 0.00 | 77 | 1032.4 |
| 20260504215530 | 64 | 168 | 0.0 | 0.0 | 0.00 | 0.00 | 0.00 | 77 | 1032.4 |
| 20260504215020 | 64 | 148 | 0.0 | 0.0 | 0.00 | 0.00 | 0.00 | 78 | 1032.3 |
| 20260504214531 | 64 | 154 | 0.0 | 0.0 | 0.00 | 0.00 | 0.00 | 79 | 1032.3 |
| 20260504214030 | 63 | 158 | 0.0 | 0.0 | 0.00 | 0.00 | 0.00 | 79 | 1032.4 |
| 20260504213520 | 63 | 156 | 0.0 | 0.0 | 0.00 | 0.00 | 0.00 | 80 | 1032.4 |
| 20260504204021 | 60 | 168 | 0.0 | 0.0 | 0.00 | 0.00 | 0.00 | 83 | 1032.4 |
| 20260504180031 | 58 | 168 | 0.0 | 0.0 | 0.00 | 0.00 | 0.00 | 84 | 1031.9 |
| 20260504015517 | 67 | 95 | 0.0 | 8.0 | 0.00 | 0.00 | 0.00 | 59 | 1032.2 |
| 20260504015017 | 67 | 74 | 0.0 | 5.0 | 0.00 | 0.00 | 0.00 | 59 | 1032.2 |